Time,TemperatureF,DewpointF,PressureIn,WindDirection,WindDirectionDegrees,WindSpeedMPH,WindSpeedGustMPH,Humidity,HourlyPrecipIn,Conditions,Clouds,dailyrainin,SoftwareType,DateUTC
2012-10-14 00:02:00,51.3,50.7,28.86,SSE,158,0.0,0.0,98,0.00,,,0.17,meteohub,2012-10-14 07:02:00,
2012-10-14 00:07:00,51.1,50.5,28.86,SSE,158,0.0,0.0,98,0.00,,,0.00,meteohub,2012-10-14 07:07:00,
2012-10-14 00:12:00,51.1,50.5,28.86,SSE,158,0.0,0.0,98,0.00,,,0.00,meteohub,2012-10-14 07:12:00,
2012-10-14 00:17:00,51.1,50.5,28.86,SSE,158,0.0,0.0,98,0.00,,,0.00,meteohub,2012-10-14 07:17:00,
2012-10-14 00:22:00,51.3,50.7,28.86,SSE,158,0.0,0.0,98,0.00,,,0.00,meteohub,2012-10-14 07:22:00,
2012-10-14 00:27:00,51.1,50.5,28.83,SSE,158,0.0,0.0,98,0.00,,,0.00,meteohub,2012-10-14 07:27:00,
2012-10-14 00:32:00,50.9,50.4,28.83,SSE,158,0.0,0.0,98,0.00,,,0.00,meteohub,2012-10-14 07:32:00,
2012-10-14 00:37:00,51.1,50.5,28.83,SSE,158,0.0,0.0,98,0.00,,,0.00,meteohub,2012-10-14 07:37:00,
2012-10-14 00:42:00,50.9,50.4,28.83,SSE,158,0.0,0.0,98,0.00,,,0.00,meteohub,2012-10-14 07:42:00,
2012-10-14 00:47:00,50.9,50.4,28.83,SSE,158,0.0,0.0,98,0.00,,,0.00,meteohub,2012-10-14 07:47:00,
2012-10-14 00:52:00,50.7,50.2,28.83,SSE,158,0.0,0.0,98,0.00,,,0.00,meteohub,2012-10-14 07:52:00,
2012-10-14 00:57:00,50.5,50.0,28.86,SSE,158,0.0,0.0,98,0.00,,,0.00,meteohub,2012-10-14 07:57:00,
2012-10-14 01:02:00,50.5,50.0,28.86,SSE,158,0.0,0.0,98,0.00,,,0.00,meteohub,2012-10-14 08:02:00,
2012-10-14 01:07:00,50.4,49.8,28.86,SSE,158,0.0,0.0,98,0.00,,,0.00,meteohub,2012-10-14 08:07:00,
2012-10-14 01:12:00,50.4,49.8,28.83,SSE,158,0.0,0.0,98,0.00,,,0.00,meteohub,2012-10-14 08:12:00,
2012-10-14 01:17:00,50.4,49.8,28.83,SSE,158,0.0,0.0,98,0.00,,,0.00,meteohub,2012-10-14 08:17:00,
2012-10-14 01:22:00,50.2,49.6,28.83,SSE,158,0.0,0.0,98,0.00,,,0.00,meteohub,2012-10-14 08:22:00,
2012-10-14 01:27:00,50.2,49.6,28.86,SSE,158,0.0,0.0,98,0.00,,,0.00,meteohub,2012-10-14 08:27:00,
2012-10-14 01:32:00,50.0,49.5,28.86,SSE,158,0.0,0.0,98,0.00,,,0.00,meteohub,2012-10-14 08:32:00,
2012-10-14 01:37:00,50.0,49.5,28.86,SSE,158,0.0,0.0,98,0.00,,,0.00,meteohub,2012-10-14 08:37:00,
2012-10-14 01:42:00,50.0,49.5,28.86,SSE,158,0.0,0.0,98,0.00,,,0.00,meteohub,2012-10-14 08:42:00,
2012-10-14 01:47:00,50.0,49.5,28.86,SSE,158,0.0,0.0,98,0.00,,,0.00,meteohub,2012-10-14 08:47:00,
2012-10-14 01:52:00,50.0,49.5,28.86,SSE,158,0.0,0.0,98,0.00,,,0.00,meteohub,2012-10-14 08:52:00,
2012-10-14 01:57:00,49.8,49.3,28.86,SSE,158,0.0,0.0,98,0.00,,,0.00,meteohub,2012-10-14 08:57:00,
2012-10-14 02:02:00,49.8,49.3,28.86,SSE,158,0.0,0.0,98,0.00,,,0.00,meteohub,2012-10-14 09:02:00,
2012-10-14 02:07:00,49.6,49.1,28.86,SSE,158,0.0,0.0,98,0.00,,,0.00,meteohub,2012-10-14 09:07:00,
2012-10-14 02:12:00,49.5,48.9,28.86,SSE,158,0.0,0.0,98,0.00,,,0.00,meteohub,2012-10-14 09:12:00,
2012-10-14 02:17:00,49.5,48.9,28.86,SSE,158,0.0,0.0,98,0.00,,,0.00,meteohub,2012-10-14 09:17:00,
2012-10-14 02:22:00,49.5,48.9,28.86,SSE,158,0.0,0.0,98,0.00,,,0.00,meteohub,2012-10-14 09:22:00,
2012-10-14 02:27:00,49.5,48.9,28.86,SSE,158,0.0,0.0,98,0.00,,,0.00,meteohub,2012-10-14 09:27:00,
2012-10-14 02:32:00,49.3,48.7,28.86,SSE,158,0.0,0.0,98,0.00,,,0.00,meteohub,2012-10-14 09:32:00,
2012-10-14 02:38:00,49.3,48.7,28.86,SSE,158,0.0,0.0,98,0.00,,,0.00,meteohub,2012-10-14 09:38:00,
2012-10-14 02:43:00,49.3,48.7,28.86,SSE,158,0.0,0.0,98,0.00,,,0.00,meteohub,2012-10-14 09:43:00,
2012-10-14 02:48:00,49.3,48.7,28.86,SSE,158,0.0,0.0,98,0.00,,,0.00,meteohub,2012-10-14 09:48:00,
2012-10-14 02:54:00,49.1,48.6,28.86,SSE,158,0.0,0.0,98,0.00,,,0.00,meteohub,2012-10-14 09:54:00,
2012-10-14 02:59:00,49.1,48.6,28.86,SSE,158,0.0,0.0,98,0.00,,,0.00,meteohub,2012-10-14 09:59:00,
2012-10-14 03:05:00,49.1,48.6,28.86,SSE,158,0.0,0.0,98,0.00,,,0.00,meteohub,2012-10-14 10:05:00,
2012-10-14 03:10:00,48.9,48.4,28.86,SSE,158,0.0,0.0,98,0.00,,,0.00,meteohub,2012-10-14 10:10:00,
2012-10-14 03:16:00,48.9,48.4,28.86,SSE,158,0.0,0.0,98,0.00,,,0.00,meteohub,2012-10-14 10:16:00,
2012-10-14 03:21:00,48.7,48.2,28.86,SSE,158,0.0,0.0,98,0.00,,,0.00,meteohub,2012-10-14 10:21:00,
2012-10-14 03:26:00,48.7,48.2,28.86,SSE,158,0.0,0.0,98,0.00,,,0.00,meteohub,2012-10-14 10:26:00,
2012-10-14 03:31:00,48.9,48.4,28.86,SSE,158,0.0,0.0,98,0.00,,,0.00,meteohub,2012-10-14 10:31:00,
2012-10-14 03:36:00,48.7,48.2,28.86,SSE,158,0.0,0.0,98,0.00,,,0.00,meteohub,2012-10-14 10:36:00,
2012-10-14 03:42:00,48.7,48.2,28.83,SSE,158,0.0,0.0,98,0.00,,,0.00,meteohub,2012-10-14 10:42:00,
2012-10-14 03:47:00,48.7,48.2,28.83,SSE,158,0.0,0.0,98,0.00,,,0.00,meteohub,2012-10-14 10:47:00,
2012-10-14 03:52:00,48.6,48.0,28.83,SSE,158,0.0,0.0,98,0.00,,,0.00,meteohub,2012-10-14 10:52:00,
2012-10-14 03:57:00,48.6,48.0,28.83,SSE,158,0.0,0.0,98,0.00,,,0.00,meteohub,2012-10-14 10:57:00,
2012-10-14 04:03:00,48.7,48.2,28.83,SSE,158,0.0,0.0,98,0.00,,,0.00,meteohub,2012-10-14 11:03:00,
2012-10-14 04:08:00,48.7,48.2,28.83,SSE,158,0.0,0.0,98,0.00,,,0.00,meteohub,2012-10-14 11:08:00,
2012-10-14 04:14:00,48.6,48.0,28.83,SSE,158,0.0,0.0,98,0.00,,,0.00,meteohub,2012-10-14 11:14:00,
2012-10-14 04:19:00,48.6,48.0,28.83,SSE,158,0.0,0.0,98,0.00,,,0.00,meteohub,2012-10-14 11:19:00,
2012-10-14 04:24:00,48.4,47.8,28.83,SSE,158,0.0,0.0,98,0.00,,,0.00,meteohub,2012-10-14 11:24:00,
2012-10-14 04:30:00,48.4,47.8,28.83,SSE,158,0.0,0.0,98,0.00,,,0.00,meteohub,2012-10-14 11:30:00,
2012-10-14 04:35:00,48.6,48.0,28.83,SSE,158,0.0,0.0,98,0.00,,,0.00,meteohub,2012-10-14 11:35:00,
2012-10-14 04:41:00,48.6,48.0,28.83,SSE,158,0.0,0.0,98,0.00,,,0.00,meteohub,2012-10-14 11:41:00,
2012-10-14 04:46:00,48.6,48.0,28.83,SSE,158,0.0,0.0,98,0.00,,,0.00,meteohub,2012-10-14 11:46:00,
2012-10-14 04:52:00,48.4,47.8,28.83,SSE,158,0.0,0.0,98,0.00,,,0.00,meteohub,2012-10-14 11:52:00,
2012-10-14 04:57:00,48.4,47.8,28.80,SSE,158,0.0,0.0,98,0.00,,,0.00,meteohub,2012-10-14 11:57:00,
2012-10-14 05:02:00,48.2,47.7,28.80,SSE,158,0.0,0.0,98,0.00,,,0.00,meteohub,2012-10-14 12:02:00,
2012-10-14 05:07:00,48.2,47.7,28.80,SSE,158,0.0,0.0,98,0.00,,,0.00,meteohub,2012-10-14 12:07:00,
2012-10-14 05:12:00,48.0,47.5,28.80,SSE,158,0.0,0.0,98,0.00,,,0.00,meteohub,2012-10-14 12:12:00,
2012-10-14 05:17:00,48.2,47.7,28.80,SSE,158,0.0,0.0,98,0.00,,,0.00,meteohub,2012-10-14 12:17:00,
2012-10-14 05:22:00,48.2,47.7,28.80,SSE,158,0.0,0.0,98,0.00,,,0.00,meteohub,2012-10-14 12:22:00,
2012-10-14 05:27:00,48.2,47.7,28.80,SSE,158,0.0,0.0,98,0.00,,,0.00,meteohub,2012-10-14 12:27:00,
2012-10-14 05:32:00,48.2,47.7,28.80,SSE,158,0.0,0.0,98,0.00,,,0.00,meteohub,2012-10-14 12:32:00,
2012-10-14 05:37:00,48.0,47.5,28.80,SSE,158,0.0,0.0,98,0.00,,,0.00,meteohub,2012-10-14 12:37:00,
2012-10-14 05:42:00,48.0,47.5,28.80,SSE,158,0.0,0.0,98,0.00,,,0.00,meteohub,2012-10-14 12:42:00,
2012-10-14 05:47:00,48.0,47.5,28.80,SSE,158,0.0,0.0,98,0.00,,,0.00,meteohub,2012-10-14 12:47:00,
2012-10-14 05:52:00,47.8,47.3,28.80,SSE,158,0.0,0.0,98,0.00,,,0.00,meteohub,2012-10-14 12:52:00,
2012-10-14 05:57:00,47.8,47.3,28.77,SSE,158,0.0,0.0,98,0.00,,,0.00,meteohub,2012-10-14 12:57:00,
2012-10-14 06:02:00,47.8,47.3,28.77,SSE,158,0.0,0.0,98,0.00,,,0.00,meteohub,2012-10-14 13:02:00,
2012-10-14 06:07:00,47.7,47.1,28.77,SSE,158,0.0,0.0,98,0.00,,,0.00,meteohub,2012-10-14 13:07:00,
2012-10-14 06:12:00,47.7,47.1,28.77,SSE,158,0.0,0.0,98,0.00,,,0.00,meteohub,2012-10-14 13:12:00,
2012-10-14 06:17:00,47.7,47.1,28.77,SSE,158,0.0,0.0,98,0.00,,,0.00,meteohub,2012-10-14 13:17:00,
2012-10-14 06:22:00,47.7,47.1,28.77,SSE,158,0.0,0.0,98,0.00,,,0.00,meteohub,2012-10-14 13:22:00,
2012-10-14 06:27:00,47.7,47.1,28.80,SSE,158,0.0,0.0,98,0.00,,,0.00,meteohub,2012-10-14 13:27:00,
2012-10-14 06:32:00,47.5,46.9,28.80,SSE,158,0.0,0.0,98,0.00,,,0.00,meteohub,2012-10-14 13:32:00,
2012-10-14 06:37:00,47.5,46.9,28.80,SSE,158,0.0,0.0,98,0.00,,,0.00,meteohub,2012-10-14 13:37:00,
2012-10-14 06:42:00,47.3,46.8,28.77,SSE,158,0.0,0.0,98,0.00,,,0.00,meteohub,2012-10-14 13:42:00,
2012-10-14 06:47:00,47.3,46.8,28.77,SSE,158,0.0,0.0,98,0.00,,,0.00,meteohub,2012-10-14 13:47:00,
2012-10-14 06:52:00,47.3,46.8,28.77,SSE,158,0.0,0.0,98,0.00,,,0.00,meteohub,2012-10-14 13:52:00,
2012-10-14 06:57:00,47.1,46.6,28.80,SSE,158,0.0,0.0,98,0.00,,,0.00,meteohub,2012-10-14 13:57:00,
2012-10-14 07:02:00,47.1,46.6,28.80,SSE,158,0.0,0.0,98,0.00,,,0.00,meteohub,2012-10-14 14:02:00,
2012-10-14 07:07:00,47.1,46.6,28.80,SSE,158,0.0,0.0,98,0.00,,,0.00,meteohub,2012-10-14 14:07:00,
2012-10-14 07:12:00,47.1,46.6,28.80,SSE,158,0.0,0.0,98,0.00,,,0.00,meteohub,2012-10-14 14:12:00,
2012-10-14 07:17:00,47.1,46.6,28.80,SSE,158,0.0,0.0,98,0.00,,,0.00,meteohub,2012-10-14 14:17:00,
2012-10-14 07:22:00,47.1,46.6,28.80,SSE,158,0.0,0.0,98,0.00,,,0.00,meteohub,2012-10-14 14:22:00,
2012-10-14 07:27:00,46.9,46.4,28.80,SSE,158,0.0,0.0,98,0.00,,,0.00,meteohub,2012-10-14 14:27:00,
2012-10-14 07:32:00,46.9,46.4,28.80,SSE,158,0.0,0.0,98,0.00,,,0.00,meteohub,2012-10-14 14:32:00,
2012-10-14 07:37:00,47.1,46.6,28.80,SSE,158,0.0,0.0,98,0.00,,,0.00,meteohub,2012-10-14 14:37:00,
2012-10-14 07:42:00,47.1,46.6,28.80,SSE,158,0.0,0.0,98,0.00,,,0.00,meteohub,2012-10-14 14:42:00,
2012-10-14 07:47:00,47.3,46.8,28.80,SSE,158,0.0,0.0,98,0.00,,,0.00,meteohub,2012-10-14 14:47:00,
2012-10-14 07:52:00,47.3,46.8,28.80,SSE,158,0.0,0.0,98,0.00,,,0.00,meteohub,2012-10-14 14:52:00,
2012-10-14 07:57:00,47.3,46.8,28.77,SSE,158,0.0,0.0,98,0.00,,,0.00,meteohub,2012-10-14 14:57:00,
2012-10-14 08:02:00,47.3,46.8,28.77,SSE,158,0.0,0.0,98,0.00,,,0.00,meteohub,2012-10-14 15:02:00,
2012-10-14 08:07:00,47.3,46.8,28.77,SSE,158,0.0,0.0,98,0.00,,,0.00,meteohub,2012-10-14 15:07:00,
2012-10-14 08:12:00,47.5,46.9,28.77,SSE,158,0.0,0.0,98,0.00,,,0.00,meteohub,2012-10-14 15:12:00,
2012-10-14 08:17:00,47.7,47.1,28.77,SSE,158,0.0,0.0,98,0.00,,,0.00,meteohub,2012-10-14 15:17:00,
2012-10-14 08:22:00,47.7,47.1,28.77,SSE,158,0.0,0.0,98,0.00,,,0.00,meteohub,2012-10-14 15:22:00,
2012-10-14 08:27:00,47.8,47.3,28.80,SSE,158,0.0,0.0,98,0.00,,,0.00,meteohub,2012-10-14 15:27:00,
2012-10-14 08:32:00,48.0,47.5,28.80,SSE,158,0.0,0.0,98,0.00,,,0.00,meteohub,2012-10-14 15:32:00,
2012-10-14 08:37:00,48.0,47.5,28.80,SSE,158,0.0,0.0,98,0.00,,,0.00,meteohub,2012-10-14 15:37:00,
2012-10-14 08:42:00,48.2,47.7,28.77,SSE,158,0.0,0.0,98,0.00,,,0.00,meteohub,2012-10-14 15:42:00,
2012-10-14 08:47:00,48.6,48.0,28.77,SSE,158,0.0,0.0,98,0.00,,,0.00,meteohub,2012-10-14 15:47:00,
2012-10-14 08:52:00,48.6,48.0,28.77,SSE,158,0.0,0.0,98,0.00,,,0.00,meteohub,2012-10-14 15:52:00,
2012-10-14 08:57:00,48.7,48.2,28.80,SSE,158,0.0,0.0,98,0.00,,,0.00,meteohub,2012-10-14 15:57:00,
2012-10-14 09:02:00,48.9,48.4,28.80,SSE,158,0.0,0.0,98,0.00,,,0.00,meteohub,2012-10-14 16:02:00,
2012-10-14 09:07:00,49.1,48.6,28.80,SSE,158,0.0,0.0,98,0.00,,,0.00,meteohub,2012-10-14 16:07:00,
2012-10-14 09:12:00,49.5,48.9,28.80,SSE,158,0.0,0.0,98,0.00,,,0.00,meteohub,2012-10-14 16:12:00,
2012-10-14 09:17:00,49.8,49.3,28.80,SSE,158,0.0,0.0,98,0.00,,,0.00,meteohub,2012-10-14 16:17:00,
2012-10-14 09:22:00,50.0,49.5,28.80,SSE,158,0.0,0.0,98,0.00,,,0.00,meteohub,2012-10-14 16:22:00,
2012-10-14 09:27:00,50.2,49.6,28.80,SSE,158,0.0,0.0,98,0.00,,,0.00,meteohub,2012-10-14 16:27:00,
2012-10-14 09:32:00,50.5,50.0,28.80,SE,135,0.0,0.0,98,0.00,,,0.00,meteohub,2012-10-14 16:32:00,
2012-10-14 09:37:00,50.7,50.2,28.80,SE,135,0.0,0.0,98,0.00,,,0.00,meteohub,2012-10-14 16:37:00,
2012-10-14 09:42:00,51.1,50.5,28.80,SE,135,0.0,0.0,98,0.00,,,0.00,meteohub,2012-10-14 16:42:00,
2012-10-14 09:47:00,51.3,50.7,28.80,SE,135,0.0,0.0,98,0.00,,,0.00,meteohub,2012-10-14 16:47:00,
2012-10-14 09:52:00,51.6,51.1,28.80,SSE,158,0.0,0.0,98,0.00,,,0.00,meteohub,2012-10-14 16:52:00,
2012-10-14 09:57:00,52.0,51.4,28.80,SSE,158,0.0,0.0,98,0.00,,,0.00,meteohub,2012-10-14 16:57:00,
2012-10-14 10:02:00,52.5,52.0,28.80,SSE,158,0.0,1.0,98,0.00,,,0.00,meteohub,2012-10-14 17:02:00,
2012-10-14 10:07:00,53.2,52.7,28.80,SSE,158,0.0,1.0,98,0.00,,,0.00,meteohub,2012-10-14 17:07:00,
2012-10-14 10:12:00,53.6,53.1,28.80,SE,135,0.0,0.0,98,0.00,,,0.00,meteohub,2012-10-14 17:12:00,
2012-10-14 10:17:00,54.1,53.6,28.80,SE,135,0.0,1.0,98,0.00,,,0.00,meteohub,2012-10-14 17:17:00,
2012-10-14 10:22:00,54.7,54.1,28.80,SSE,158,0.0,2.0,98,0.00,,,0.00,meteohub,2012-10-14 17:22:00,
2012-10-14 10:27:00,55.2,54.7,28.80,SE,135,0.0,2.0,98,0.00,,,0.00,meteohub,2012-10-14 17:27:00,
2012-10-14 10:32:00,55.8,55.2,28.80,SE,135,0.0,2.0,98,0.00,,,0.00,meteohub,2012-10-14 17:32:00,
2012-10-14 10:37:00,56.1,55.6,28.80,SSE,158,0.0,2.0,98,0.00,,,0.00,meteohub,2012-10-14 17:37:00,
2012-10-14 10:42:00,56.5,55.9,28.83,SSE,158,1.0,2.0,98,0.00,,,0.00,meteohub,2012-10-14 17:42:00,
2012-10-14 10:47:00,57.0,56.5,28.83,SSE,158,0.0,2.0,98,0.00,,,0.00,meteohub,2012-10-14 17:47:00,
2012-10-14 10:52:00,57.4,56.8,28.83,SSE,158,0.0,2.0,98,0.00,,,0.00,meteohub,2012-10-14 17:52:00,
2012-10-14 10:57:00,57.7,57.2,28.80,SE,135,2.0,2.0,98,0.00,,,0.00,meteohub,2012-10-14 17:57:00,
2012-10-14 11:02:00,57.9,57.4,28.80,SE,135,0.0,2.0,98,0.00,,,0.00,meteohub,2012-10-14 18:02:00,
2012-10-14 11:07:00,57.9,57.4,28.80,SSE,158,0.0,2.0,98,0.00,,,0.00,meteohub,2012-10-14 18:07:00,
2012-10-14 11:12:00,58.1,57.6,28.80,SSE,158,0.0,2.0,98,0.00,,,0.00,meteohub,2012-10-14 18:12:00,
2012-10-14 11:17:00,57.9,57.4,28.80,SSE,158,0.0,2.0,98,0.00,,,0.00,meteohub,2012-10-14 18:17:00,
2012-10-14 11:22:00,58.1,57.6,28.80,South,180,0.0,0.0,98,0.00,,,0.00,meteohub,2012-10-14 18:22:00,
2012-10-14 11:27:00,57.9,57.4,28.80,SSE,158,0.0,1.0,98,0.00,,,0.00,meteohub,2012-10-14 18:27:00,
2012-10-14 11:32:00,58.1,57.6,28.80,South,180,0.0,2.0,98,0.00,,,0.00,meteohub,2012-10-14 18:32:00,
2012-10-14 11:37:00,58.1,57.6,28.80,South,180,0.0,2.0,98,0.00,,,0.00,meteohub,2012-10-14 18:37:00,
2012-10-14 11:42:00,58.3,57.7,28.77,South,180,0.0,2.0,98,0.00,,,0.00,meteohub,2012-10-14 18:42:00,
2012-10-14 11:47:00,58.3,57.7,28.77,WSW,248,0.0,1.0,98,0.00,,,0.00,meteohub,2012-10-14 18:47:00,
2012-10-14 11:52:00,58.3,57.7,28.77,ESE,112,0.0,3.0,98,0.00,,,0.00,meteohub,2012-10-14 18:52:00,
2012-10-14 11:57:00,58.1,57.6,28.80,SW,225,0.0,3.0,98,0.00,,,0.00,meteohub,2012-10-14 18:57:00,
2012-10-14 12:02:00,57.9,57.4,28.80,SSE,158,0.0,3.0,98,0.00,,,0.00,meteohub,2012-10-14 19:02:00,
2012-10-14 12:07:00,57.6,57.0,28.80,SSW,202,1.0,3.0,98,0.00,,,0.00,meteohub,2012-10-14 19:07:00,
2012-10-14 12:12:00,57.6,57.0,28.80,SSE,158,0.0,3.0,98,0.00,,,0.00,meteohub,2012-10-14 19:12:00,
2012-10-14 12:17:00,57.6,57.0,28.80,SSW,202,1.0,2.0,98,0.00,,,0.00,meteohub,2012-10-14 19:17:00,
2012-10-14 12:22:00,57.4,56.8,28.80,ESE,112,0.0,3.0,98,0.00,,,0.00,meteohub,2012-10-14 19:22:00,
2012-10-14 12:27:00,57.4,56.8,28.80,SSW,202,2.0,3.0,98,0.00,,,0.00,meteohub,2012-10-14 19:27:00,
2012-10-14 12:32:00,57.4,56.8,28.80,ENE,68,0.0,4.0,98,0.00,,,0.00,meteohub,2012-10-14 19:32:00,
2012-10-14 12:37:00,57.4,56.8,28.80,SSE,158,0.0,4.0,98,0.00,,,0.00,meteohub,2012-10-14 19:37:00,
2012-10-14 12:42:00,57.4,56.8,28.80,SSE,158,1.0,3.0,98,0.00,,,0.00,meteohub,2012-10-14 19:42:00,
2012-10-14 12:47:00,57.4,56.8,28.80,South,180,0.0,2.0,98,0.00,,,0.00,meteohub,2012-10-14 19:47:00,
2012-10-14 12:52:00,57.6,57.0,28.80,South,180,0.0,2.0,98,0.00,,,0.00,meteohub,2012-10-14 19:52:00,
2012-10-14 12:57:00,57.6,57.0,28.80,SSE,158,0.0,2.0,98,0.00,,,0.00,meteohub,2012-10-14 19:57:00,
2012-10-14 13:02:00,57.7,57.2,28.80,SSE,158,0.0,4.0,98,0.00,,,0.00,meteohub,2012-10-14 20:02:00,
2012-10-14 13:08:00,57.9,57.4,28.80,SSW,202,0.0,4.0,98,0.00,,,0.00,meteohub,2012-10-14 20:08:00,
2012-10-14 13:13:00,57.9,57.4,28.80,SSE,158,0.0,4.0,98,0.00,,,0.00,meteohub,2012-10-14 20:13:00,
2012-10-14 13:18:00,58.3,57.7,28.80,SSW,202,0.0,3.0,98,0.00,,,0.00,meteohub,2012-10-14 20:18:00,
2012-10-14 13:24:00,58.3,57.7,28.80,SSW,202,0.0,2.0,98,0.00,,,0.00,meteohub,2012-10-14 20:24:00,
2012-10-14 13:29:00,58.3,57.7,28.80,SSW,202,0.0,2.0,98,0.00,,,0.00,meteohub,2012-10-14 20:29:00,
2012-10-14 13:35:00,58.5,57.9,28.80,SSE,158,1.0,2.0,98,0.00,,,0.00,meteohub,2012-10-14 20:35:00,
2012-10-14 13:40:00,58.8,58.3,28.80,SSE,158,0.0,2.0,98,0.00,,,0.00,meteohub,2012-10-14 20:40:00,
2012-10-14 13:46:00,59.0,58.5,28.80,SSW,202,0.0,2.0,98,0.00,,,0.00,meteohub,2012-10-14 20:46:00,
2012-10-14 13:51:00,59.4,58.8,28.80,SSE,158,0.0,2.0,98,0.00,,,0.00,meteohub,2012-10-14 20:51:00,
2012-10-14 13:57:00,59.4,58.8,28.80,SSE,158,0.0,2.0,98,0.00,,,0.00,meteohub,2012-10-14 20:57:00,
2012-10-14 14:02:00,59.4,58.8,28.80,SSE,158,0.0,2.0,98,0.00,,,0.00,meteohub,2012-10-14 21:02:00,
2012-10-14 14:07:00,59.2,58.6,28.80,SSE,158,1.0,2.0,98,0.00,,,0.00,meteohub,2012-10-14 21:07:00,
2012-10-14 14:12:00,59.2,58.6,28.80,South,180,0.0,2.0,98,0.00,,,0.00,meteohub,2012-10-14 21:12:00,
2012-10-14 14:17:00,59.0,58.5,28.80,SSE,158,0.0,2.0,98,0.00,,,0.00,meteohub,2012-10-14 21:17:00,
2012-10-14 14:22:00,59.0,58.5,28.80,SSE,158,0.0,2.0,98,0.00,,,0.00,meteohub,2012-10-14 21:22:00,
2012-10-14 14:27:00,59.0,58.5,28.80,SSW,202,0.0,2.0,98,0.00,,,0.00,meteohub,2012-10-14 21:27:00,
2012-10-14 14:32:00,59.0,58.5,28.80,SSE,158,0.0,2.0,98,0.00,,,0.00,meteohub,2012-10-14 21:32:00,
2012-10-14 14:37:00,58.8,58.3,28.80,ESE,112,0.0,2.0,98,0.00,,,0.00,meteohub,2012-10-14 21:37:00,
2012-10-14 14:42:00,58.6,58.1,28.80,SSW,202,0.0,2.0,98,0.00,,,0.00,meteohub,2012-10-14 21:42:00,
2012-10-14 14:47:00,58.5,57.9,28.80,South,180,0.0,2.0,98,0.00,,,0.00,meteohub,2012-10-14 21:47:00,
2012-10-14 14:52:00,58.5,57.9,28.80,SSE,158,0.0,2.0,98,0.00,,,0.00,meteohub,2012-10-14 21:52:00,
2012-10-14 14:57:00,58.3,57.7,28.80,South,180,0.0,1.0,98,0.00,,,0.00,meteohub,2012-10-14 21:57:00,
2012-10-14 15:02:00,58.3,57.7,28.80,SSE,158,1.0,2.0,98,0.00,,,0.00,meteohub,2012-10-14 22:02:00,
2012-10-14 15:07:00,58.1,57.6,28.80,South,180,0.0,2.0,98,0.00,,,0.00,meteohub,2012-10-14 22:07:00,
2012-10-14 15:12:00,58.1,57.6,28.80,ESE,112,3.0,3.0,98,0.00,,,0.00,meteohub,2012-10-14 22:12:00,
2012-10-14 15:17:00,58.1,57.6,28.80,SSW,202,0.0,4.0,98,0.00,,,0.00,meteohub,2012-10-14 22:17:00,
2012-10-14 15:22:00,57.9,57.4,28.80,SSE,158,1.0,4.0,98,0.00,,,0.00,meteohub,2012-10-14 22:22:00,
2012-10-14 15:27:00,57.9,57.4,28.77,SSE,158,2.0,4.0,98,0.00,,,0.00,meteohub,2012-10-14 22:27:00,
2012-10-14 15:32:00,57.9,57.4,28.77,South,180,0.0,2.0,98,0.00,,,0.00,meteohub,2012-10-14 22:32:00,
2012-10-14 15:37:00,57.9,57.4,28.77,SSW,202,0.0,3.0,98,0.00,,,0.00,meteohub,2012-10-14 22:37:00,
2012-10-14 15:42:00,57.9,57.4,28.77,South,180,0.0,3.0,98,0.00,,,0.00,meteohub,2012-10-14 22:42:00,
2012-10-14 15:47:00,57.9,57.4,28.77,SSW,202,0.0,3.0,98,0.00,,,0.00,meteohub,2012-10-14 22:47:00,
2012-10-14 15:52:00,57.9,57.4,28.77,SSE,158,0.0,2.0,98,0.00,,,0.00,meteohub,2012-10-14 22:52:00,
2012-10-14 15:57:00,58.1,57.6,28.77,SSE,158,0.0,2.0,98,0.00,,,0.00,meteohub,2012-10-14 22:57:00,
2012-10-14 16:02:00,57.9,57.4,28.77,ESE,112,0.0,2.0,98,0.00,,,0.00,meteohub,2012-10-14 23:02:00,
2012-10-14 16:07:00,58.1,57.6,28.77,SSE,158,0.0,2.0,98,0.00,,,0.00,meteohub,2012-10-14 23:07:00,
2012-10-14 16:12:00,58.1,57.6,28.74,SSE,158,1.0,1.0,98,0.00,,,0.00,meteohub,2012-10-14 23:12:00,
2012-10-14 16:17:00,58.1,57.6,28.74,SSE,158,0.0,2.0,98,0.00,,,0.00,meteohub,2012-10-14 23:17:00,
2012-10-14 16:22:00,58.1,57.6,28.74,SSE,158,0.0,2.0,98,0.00,,,0.00,meteohub,2012-10-14 23:22:00,
2012-10-14 16:27:00,58.1,57.6,28.74,SSE,158,0.0,2.0,98,0.00,,,0.00,meteohub,2012-10-14 23:27:00,
2012-10-14 16:32:00,58.1,57.6,28.74,SSE,158,0.0,2.0,98,0.00,,,0.00,meteohub,2012-10-14 23:32:00,
2012-10-14 16:37:00,57.9,57.4,28.74,SSE,158,0.0,0.0,98,0.00,,,0.00,meteohub,2012-10-14 23:37:00,
2012-10-14 16:42:00,57.9,57.4,28.74,SSE,158,0.0,2.0,98,0.00,,,0.00,meteohub,2012-10-14 23:42:00,
2012-10-14 16:47:00,57.7,57.2,28.74,SSE,158,0.0,2.0,98,0.00,,,0.00,meteohub,2012-10-14 23:47:00,
2012-10-14 16:53:00,57.7,57.2,28.74,SSE,158,0.0,2.0,98,0.00,,,0.00,meteohub,2012-10-14 23:53:00,
2012-10-14 16:58:00,57.7,57.2,28.74,South,180,0.0,3.0,98,0.00,,,0.00,meteohub,2012-10-14 23:58:00,
2012-10-14 17:04:00,57.7,57.2,28.74,SSE,158,1.0,3.0,98,0.00,,,0.00,meteohub,2012-10-15 00:04:00,
2012-10-14 17:09:00,57.7,57.2,28.74,SSW,202,0.0,3.0,98,0.00,,,0.00,meteohub,2012-10-15 00:09:00,
2012-10-14 17:14:00,57.6,57.0,28.74,SSE,158,1.0,3.0,98,0.00,,,0.00,meteohub,2012-10-15 00:14:00,
2012-10-14 17:19:00,57.6,57.0,28.74,ESE,112,0.0,3.0,98,0.00,,,0.00,meteohub,2012-10-15 00:19:00,
2012-10-14 17:24:00,57.6,57.0,28.74,SSE,158,0.0,3.0,98,0.00,,,0.00,meteohub,2012-10-15 00:24:00,
2012-10-14 17:30:00,57.6,57.0,28.74,SSE,158,0.0,2.0,98,0.00,,,0.00,meteohub,2012-10-15 00:30:00,
2012-10-14 17:35:00,57.6,57.0,28.74,SSW,202,0.0,2.0,98,0.00,,,0.00,meteohub,2012-10-15 00:35:00,
2012-10-14 17:40:00,57.6,57.0,28.74,SSE,158,0.0,2.0,98,0.00,,,0.00,meteohub,2012-10-15 00:40:00,
2012-10-14 17:45:00,57.6,57.0,28.74,SE,135,0.0,2.0,98,0.00,,,0.00,meteohub,2012-10-15 00:45:00,
2012-10-14 17:51:00,57.4,56.8,28.74,SSE,158,0.0,2.0,98,0.00,,,0.00,meteohub,2012-10-15 00:51:00,
2012-10-14 17:56:00,57.4,56.8,28.74,SSE,158,1.0,2.0,98,0.00,,,0.00,meteohub,2012-10-15 00:56:00,
2012-10-14 18:01:00,57.4,56.8,28.74,SSE,158,1.0,2.0,98,0.00,,,0.00,meteohub,2012-10-15 01:01:00,
2012-10-14 18:07:00,57.4,56.8,28.74,SSE,158,0.0,2.0,98,0.00,,,0.00,meteohub,2012-10-15 01:07:00,
2012-10-14 18:12:00,57.4,56.8,28.74,South,180,0.0,2.0,98,0.00,,,0.00,meteohub,2012-10-15 01:12:00,
2012-10-14 18:17:00,57.2,56.7,28.74,South,180,0.0,2.0,98,0.00,,,0.00,meteohub,2012-10-15 01:17:00,
2012-10-14 18:22:00,57.2,56.7,28.74,South,180,0.0,2.0,98,0.00,,,0.00,meteohub,2012-10-15 01:22:00,
2012-10-14 18:27:00,57.2,56.7,28.71,South,180,0.0,2.0,98,0.00,,,0.00,meteohub,2012-10-15 01:27:00,
2012-10-14 18:32:00,57.0,56.5,28.71,South,180,0.0,2.0,98,0.00,,,0.00,meteohub,2012-10-15 01:32:00,
2012-10-14 18:38:00,57.0,56.5,28.71,South,180,1.0,2.0,98,0.00,,,0.00,meteohub,2012-10-15 01:38:00,
2012-10-14 18:43:00,57.0,56.5,28.71,SSW,202,0.0,2.0,98,0.00,,,0.00,meteohub,2012-10-15 01:43:00,
2012-10-14 18:49:00,56.8,56.3,28.71,SSW,202,0.0,2.0,98,0.00,,,0.00,meteohub,2012-10-15 01:49:00,
2012-10-14 18:54:00,56.8,56.3,28.71,SSW,202,0.0,2.0,98,0.00,,,0.00,meteohub,2012-10-15 01:54:00,
2012-10-14 18:59:00,56.8,56.3,28.66,WSW,248,0.0,2.0,98,0.00,,,0.00,meteohub,2012-10-15 01:59:00,
2012-10-14 19:05:00,56.8,56.3,28.66,SSW,202,0.0,2.0,98,0.00,,,0.00,meteohub,2012-10-15 02:05:00,
2012-10-14 19:10:00,56.8,56.3,28.69,SSW,202,0.0,2.0,98,0.00,,,0.00,meteohub,2012-10-15 02:10:00,
2012-10-14 19:15:00,56.8,56.3,28.69,SSW,202,0.0,2.0,98,0.00,,,0.00,meteohub,2012-10-15 02:15:00,
2012-10-14 19:20:00,56.8,56.3,28.69,SSW,202,0.0,2.0,98,0.00,,,0.00,meteohub,2012-10-15 02:20:00,
2012-10-14 19:25:00,56.7,56.1,28.69,SSW,202,0.0,2.0,98,0.00,,,0.00,meteohub,2012-10-15 02:25:00,
2012-10-14 19:31:00,56.8,56.3,28.69,South,180,0.0,2.0,98,0.00,,,0.00,meteohub,2012-10-15 02:31:00,
2012-10-14 19:36:00,56.7,56.1,28.69,South,180,1.0,2.0,98,0.00,,,0.00,meteohub,2012-10-15 02:36:00,
2012-10-14 19:42:00,56.7,56.1,28.69,South,180,0.0,2.0,98,0.00,,,0.00,meteohub,2012-10-15 02:42:00,
2012-10-14 19:47:00,56.7,56.1,28.69,South,180,0.0,1.0,98,0.00,,,0.00,meteohub,2012-10-15 02:47:00,
2012-10-14 19:52:00,56.7,56.1,-100.00,SSE,158,0.0,1.0,98,0.00,,,0.00,meteohub,2012-10-15 02:52:00,
2012-10-14 20:03:00,56.7,56.1,28.69,SSE,158,1.0,0.0,98,0.00,,,0.00,meteohub,2012-10-15 03:03:00,
2012-10-14 20:11:00,56.7,56.1,-100.00,North,-999,-999.0,1.0,98,0.00,,,0.00,meteohub,2012-10-15 03:11:00,
2012-10-14 20:20:00,56.7,56.1,28.69,SSE,158,2.0,0.0,98,0.00,,,0.00,meteohub,2012-10-15 03:20:00,
2012-10-14 20:34:00,56.7,56.1,-100.00,North,-999,-999.0,2.0,98,0.04,,,0.04,meteohub,2012-10-15 03:34:00,
2012-10-14 20:43:00,56.8,56.3,28.69,ESE,112,2.0,-999.0,98,0.04,,,0.04,meteohub,2012-10-15 03:43:00,
2012-10-14 20:48:00,56.8,56.3,28.74,ESE,112,0.0,-999.0,98,0.04,,,0.04,meteohub,2012-10-15 03:48:00,
2012-10-14 20:53:00,56.8,56.3,28.74,SE,135,1.0,2.0,98,0.04,,,0.04,meteohub,2012-10-15 03:53:00,
2012-10-14 20:58:00,57.0,56.5,28.74,SSE,158,1.0,2.0,98,0.08,,,0.08,meteohub,2012-10-15 03:58:00,
2012-10-14 21:00:00,57.0,56.5,28.74,SSE,158,0.0,2.0,98,0.08,,,0.08,meteohub,2012-10-15 04:00:00,
2012-10-14 21:01:00,57.0,56.5,28.74,SSE,158,0.0,2.0,98,0.08,,,0.08,meteohub,2012-10-15 04:01:00,
2012-10-14 21:02:00,57.0,56.5,28.74,SSE,158,0.0,2.0,98,0.08,,,0.08,meteohub,2012-10-15 04:02:00,
2012-10-14 21:03:00,57.0,56.5,28.74,SSE,158,0.0,2.0,98,0.08,,,0.08,meteohub,2012-10-15 04:03:00,
2012-10-14 21:08:00,57.2,56.7,28.74,ESE,112,0.0,2.0,98,0.12,,,0.12,meteohub,2012-10-15 04:08:00,
2012-10-14 21:14:00,57.2,56.7,28.71,North,0,0.0,4.0,98,0.12,,,0.12,meteohub,2012-10-15 04:14:00,
2012-10-14 21:19:00,57.4,56.8,28.71,ENE,68,0.0,4.0,98,0.08,,,0.12,meteohub,2012-10-15 04:19:00,
2012-10-14 21:25:00,57.2,56.7,28.71,ESE,112,0.0,3.0,98,0.12,,,0.16,meteohub,2012-10-15 04:25:00,
2012-10-14 21:30:00,57.4,56.8,28.71,WSW,248,0.0,2.0,98,0.16,,,0.20,meteohub,2012-10-15 04:30:00,
2012-10-14 21:35:00,57.4,56.8,28.71,SW,225,0.0,2.0,98,0.16,,,0.20,meteohub,2012-10-15 04:35:00,
2012-10-14 21:40:00,57.2,56.7,28.71,WSW,248,0.0,2.0,98,0.20,,,0.24,meteohub,2012-10-15 04:40:00,
2012-10-14 21:46:00,57.2,56.7,28.71,South,180,1.0,2.0,98,0.20,,,0.24,meteohub,2012-10-15 04:46:00,
2012-10-14 21:51:00,57.2,56.7,28.71,SSE,158,0.0,2.0,98,0.16,,,0.24,meteohub,2012-10-15 04:51:00,
2012-10-14 21:57:00,57.2,56.7,28.66,SSE,158,0.0,2.0,98,0.21,,,0.29,meteohub,2012-10-15 04:57:00,
2012-10-14 22:02:00,57.2,56.7,28.66,SSE,158,0.0,2.0,98,0.21,,,0.29,meteohub,2012-10-15 05:02:00,
2012-10-14 22:07:00,57.2,56.7,28.66,WSW,248,0.0,2.0,98,0.17,,,0.29,meteohub,2012-10-15 05:07:00,
2012-10-14 22:12:00,57.2,56.7,28.69,WSW,248,0.0,2.0,98,0.17,,,0.29,meteohub,2012-10-15 05:12:00,
2012-10-14 22:17:00,57.2,56.7,28.69,SE,135,0.0,2.0,98,0.13,,,0.29,meteohub,2012-10-15 05:17:00,
2012-10-14 22:22:00,57.2,56.7,28.69,SSW,202,0.0,2.0,98,0.13,,,0.29,meteohub,2012-10-15 05:22:00,
2012-10-14 22:27:00,57.2,56.7,28.69,SSE,158,0.0,2.0,98,0.09,,,0.29,meteohub,2012-10-15 05:27:00,
2012-10-14 22:32:00,57.2,56.7,28.69,ESE,112,3.0,3.0,98,0.09,,,0.29,meteohub,2012-10-15 05:32:00,
2012-10-14 22:37:00,57.2,56.7,28.69,SSE,158,2.0,3.0,98,0.09,,,0.29,meteohub,2012-10-15 05:37:00,
2012-10-14 22:42:00,57.2,56.7,28.69,South,180,0.0,3.0,98,0.05,,,0.29,meteohub,2012-10-15 05:42:00,
2012-10-14 22:47:00,57.2,56.7,28.69,South,180,0.0,3.0,98,0.09,,,0.33,meteohub,2012-10-15 05:47:00,
2012-10-14 22:52:00,57.2,56.7,28.69,South,180,0.0,2.0,98,0.09,,,0.33,meteohub,2012-10-15 05:52:00,
2012-10-14 22:57:00,57.2,56.7,28.69,SSE,158,0.0,2.0,98,0.04,,,0.33,meteohub,2012-10-15 05:57:00,
2012-10-14 23:02:00,57.2,56.7,28.69,West,270,3.0,3.0,98,0.12,,,0.41,meteohub,2012-10-15 06:02:00,
2012-10-14 23:07:00,57.2,56.7,28.69,WSW,248,0.0,3.0,98,0.16,,,0.45,meteohub,2012-10-15 06:07:00,
2012-10-14 23:12:00,57.2,56.7,28.69,SSW,202,0.0,3.0,98,0.16,,,0.45,meteohub,2012-10-15 06:12:00,
2012-10-14 23:17:00,57.2,56.7,28.69,WSW,248,1.0,3.0,98,0.21,,,0.50,meteohub,2012-10-15 06:17:00,
2012-10-14 23:22:00,57.0,56.5,28.69,WSW,248,0.0,3.0,98,0.24,,,0.53,meteohub,2012-10-15 06:22:00,
2012-10-14 23:27:00,56.8,56.3,28.66,WSW,248,0.0,3.0,98,0.24,,,0.53,meteohub,2012-10-15 06:27:00,
2012-10-14 23:32:00,56.8,56.3,28.66,SSE,158,1.0,3.0,98,0.29,,,0.58,meteohub,2012-10-15 06:32:00,
2012-10-14 23:37:00,56.8,56.3,28.66,SSE,158,1.0,3.0,98,0.29,,,0.58,meteohub,2012-10-15 06:37:00,
2012-10-14 23:42:00,56.8,56.3,28.69,SSW,202,0.0,3.0,98,0.29,,,0.58,meteohub,2012-10-15 06:42:00,
2012-10-14 23:47:00,56.8,56.3,28.69,NE,45,0.0,3.0,98,0.29,,,0.62,meteohub,2012-10-15 06:47:00,
2012-10-14 23:52:00,56.8,56.3,28.69,South,180,1.0,3.0,98,0.33,,,0.66,meteohub,2012-10-15 06:52:00,
2012-10-14 23:57:00,56.8,56.3,28.69,South,180,1.0,3.0,98,0.33,,,0.70,meteohub,2012-10-15 06:57:00,